Change the Weather History Date:

Monday, October 27, 2014

  Actual Average Record
Temperature  
Mean Temperature 60 °F -  
Max Temperature 62 °F 49 °F 69 °F (2005)
Min Temperature 57 °F 37 °F 28 °F (2012)
Degree Days  
Heating Degree Days 6    
Growing Degree Days 10 (Base 50)    
Moisture  
Dew Point 55 °F    
Average Humidity 83    
Maximum Humidity 88    
Minimum Humidity 77    
Precipitation  
Precipitation 0.00 in 0.08 in - ()
Sea Level Pressure  
Sea Level Pressure 29.69 in    
Wind  
Wind Speed 19 mph ()    
Max Wind Speed 33 mph    
Max Gust Speed 41 mph    
Visibility 5.9 miles    
Events Rain    
Averages and records for this station are not official NWS values.
T = Trace of Precipitation, MM = Missing Value Source: Averaged Metar Reports

Daily Weather History Graph

Daily Weather History Graph

Search for Another Location

Airport or City:

Trip Planner

Search our weather history database for the weather conditions in past years. The results will help you decide how hot, cold, wet, or windy it might be!

Date:

Astronomy

Oct. 27, 2014 Rise Set
Actual Time 7:09 AM GMT 4:44 PM GMT
Civil Twilight 6:30 AM GMT 5:23 PM GMT
Nautical Twilight 5:46 AM GMT 6:06 PM GMT
Astronomical Twilight 5:03 AM GMT 6:49 PM GMT
Moon 10:53 AM GMT (10/27) 7:13 PM GMT (10/27)
Length of Visible Light 10h 52m
Length of Day
9h 35m
Waxing Crescent, 14% of the Moon is Illuminated
Oct 27
Waxing Crescent
Oct 31
First Quarter
Nov 6
Full
Nov 14
Last Quarter
Nov 22
New

Hourly Weather History & Observations

Time (GMT) Temp. Dew Point Humidity Pressure Visibility Wind Dir Wind Speed Gust Speed Precip Events Conditions
12:20 AM 57.2 °F 51.8 °F 82% 29.68 in 6.2 mi WSW 27.6 mph - N/A   Partly Cloudy
12:50 AM 57.2 °F 53.6 °F 88% 29.68 in 6.2 mi WSW 33.4 mph - N/A Rain Light Rain
1:20 AM 59.0 °F 53.6 °F 82% 29.71 in 6.2 mi WSW 29.9 mph 41.4 mph N/A   Partly Cloudy
1:50 AM 59.0 °F 53.6 °F 82% 29.71 in 6.2 mi WSW 23.0 mph - N/A   Partly Cloudy
2:20 AM 59.0 °F 53.6 °F 82% 29.71 in 6.2 mi WSW 19.6 mph - N/A   Scattered Clouds
2:50 AM 59.0 °F 55.4 °F 88% 29.71 in 6.2 mi SW 23.0 mph - N/A   Scattered Clouds
3:20 AM 59.0 °F 55.4 °F 88% 29.71 in 6.2 mi WSW 23.0 mph - N/A   Overcast
3:50 AM 59.0 °F 55.4 °F 88% 29.71 in 6.2 mi SW 19.6 mph - N/A Rain Light Rain
4:20 AM 59.0 °F 55.4 °F 88% 29.71 in 6.2 mi SW 19.6 mph - N/A Rain Light Rain
4:50 AM 59.0 °F 55.4 °F 88% 29.71 in 6.2 mi SW 20.7 mph - N/A Rain Light Rain
5:20 AM 59.0 °F 55.4 °F 88% 29.71 in 6.2 mi SW 20.7 mph - N/A Rain Light Rain
5:50 AM 59.0 °F 55.4 °F 88% 29.71 in 6.2 mi SW 19.6 mph - N/A Rain Light Rain
6:20 AM 59.0 °F 53.6 °F 82% 29.71 in 6.2 mi SW 18.4 mph - N/A   Scattered Clouds
6:50 AM 59.0 °F 53.6 °F 82% 29.71 in 6.2 mi SW 20.7 mph - N/A   Mostly Cloudy
7:20 AM 59.0 °F 55.4 °F 88% 29.71 in 6.2 mi SW 19.6 mph - N/A   Mostly Cloudy
7:50 AM 59.0 °F 55.4 °F 88% 29.71 in 6.2 mi SW 18.4 mph - N/A   Mostly Cloudy
8:20 AM 59.0 °F 55.4 °F 88% 29.71 in 6.2 mi SW 18.4 mph - N/A   Scattered Clouds
8:50 AM 59.0 °F 55.4 °F 88% 29.71 in 6.2 mi SW 18.4 mph - N/A   Scattered Clouds
9:20 AM 60.8 °F 55.4 °F 82% 29.71 in 6.2 mi SW 16.1 mph - N/A   Partly Cloudy
9:50 AM 60.8 °F 55.4 °F 82% 29.71 in 6.2 mi SW 18.4 mph - N/A   Scattered Clouds
10:20 AM 60.8 °F 55.4 °F 82% 29.71 in 6.2 mi SSW 17.3 mph - N/A   Mostly Cloudy
10:50 AM 62.6 °F 55.4 °F 77% 29.71 in 6.2 mi SSW 16.1 mph - N/A   Mostly Cloudy
11:20 AM 62.6 °F 55.4 °F 77% 29.71 in 6.2 mi SSW 16.1 mph - N/A   Mostly Cloudy
11:50 AM 60.8 °F 55.4 °F 82% 29.71 in 6.2 mi SW 18.4 mph - N/A   Mostly Cloudy
12:20 PM 62.6 °F 55.4 °F 77% 29.71 in 6.2 mi SW 18.4 mph - N/A   Mostly Cloudy
12:50 PM 62.6 °F 55.4 °F 77% 29.71 in 6.2 mi SW 18.4 mph - N/A   Mostly Cloudy
1:20 PM 60.8 °F 55.4 °F 82% 29.71 in 5.0 mi SW 16.1 mph - N/A Rain Light Rain
1:50 PM 60.8 °F 55.4 °F 82% 29.68 in 5.6 mi SSW 15.0 mph - N/A   Mostly Cloudy
2:20 PM 59.0 °F 55.4 °F 88% 29.68 in 4.3 mi SW 16.1 mph - N/A Rain Rain
2:50 PM 60.8 °F 55.4 °F 82% 29.68 in 3.7 mi SW 19.6 mph - N/A Rain Rain
3:20 PM 60.8 °F 55.4 °F 82% 29.68 in 3.7 mi SW 18.4 mph - N/A Rain Light Rain
3:50 PM 59.0 °F 55.4 °F 88% 29.68 in 5.0 mi SW 13.8 mph - N/A Rain Light Rain
4:20 PM 60.8 °F 55.4 °F 82% 29.68 in 5.6 mi SW 18.4 mph - N/A   Mostly Cloudy
4:50 PM 60.8 °F 55.4 °F 82% 29.68 in 5.6 mi SW 21.9 mph - N/A   Mostly Cloudy
5:20 PM 60.8 °F 53.6 °F 77% 29.68 in 5.6 mi SW 20.7 mph - N/A   Mostly Cloudy
5:50 PM 60.8 °F 53.6 °F 77% 29.68 in 5.6 mi SW 18.4 mph - N/A Rain Light Rain
6:20 PM 59.0 °F 53.6 °F 82% 29.68 in 6.2 mi SW 20.7 mph - N/A   Partly Cloudy
6:50 PM 60.8 °F 55.4 °F 82% 29.68 in 6.2 mi SW 18.4 mph - N/A Rain Light Rain
7:20 PM 60.8 °F 55.4 °F 82% 29.68 in 6.2 mi SW 15.0 mph - N/A   Overcast
7:50 PM 60.8 °F 55.4 °F 82% 29.68 in 6.2 mi SW 16.1 mph - N/A   Overcast
8:20 PM 60.8 °F 55.4 °F 82% 29.68 in 6.2 mi SW 18.4 mph - N/A   Mostly Cloudy
8:50 PM 60.8 °F 55.4 °F 82% 29.68 in 6.2 mi SW 17.3 mph - N/A   Overcast
9:20 PM 60.8 °F 55.4 °F 82% 29.68 in 6.2 mi SSW 19.6 mph - N/A   Overcast
9:50 PM 60.8 °F 55.4 °F 82% 29.68 in 6.2 mi SSW 17.3 mph - N/A   Overcast
10:20 PM 60.8 °F 55.4 °F 82% 29.68 in 6.2 mi SSW 20.7 mph - N/A   Overcast
10:50 PM 60.8 °F 55.4 °F 82% 29.65 in 6.2 mi SSW 16.1 mph 27.6 mph N/A   Overcast
11:20 PM 59.0 °F 55.4 °F 88% 29.65 in 6.2 mi SSW 19.6 mph - N/A Rain Light Rain Showers
11:50 PM 59.0 °F 55.4 °F 88% 29.65 in 6.2 mi SSW 19.6 mph - N/A Rain Light Rain